Danbury, CT

9:40 PM EDT on March 22, 2017 (GMT -0400)
Danbury Municipal

Weather History for KDXR - July, 2013

Change the Weather History Date:

Sunday, July 14, 2013

  Actual Average Record
Temperature  
Mean Temperature 80 °F -  
Max Temperature 89 °F 85 °F 97 °F (1954)
Min Temperature 71 °F 62 °F 51 °F (1999)
Cooling Degree Days 15    
Growing Degree Days 30 (Base 50)    
Moisture  
Dew Point 70 °F    
Average Humidity 79    
Maximum Humidity 94    
Minimum Humidity 53    
Precipitation  
Precipitation 0.01 in - - ()
Sea Level Pressure  
Sea Level Pressure 30.31 in    
Wind  
Wind Speed 2 mph (West)    
Max Wind Speed 8 mph    
Max Gust Speed -    
Visibility 8 miles    
Events Rain    
Averages and records for this station are not official NWS values.
T = Trace of Precipitation, MM = Missing Value Source: NWS Daily Summary

Daily Weather History Graph

Daily Weather History Graph

Search for Another Location

Airport or City:

Trip Planner

Search our weather history database for the weather conditions in past years. The results will help you decide how hot, cold, wet, or windy it might be!

Date:

Astronomy

Jul. 14, 2013 Rise Set
Actual Time 5:32 AM EDT 8:26 PM EDT
Civil Twilight 5:00 AM EDT 8:59 PM EDT
Nautical Twilight 4:18 AM EDT 9:40 PM EDT
Astronomical Twilight 3:30 AM EDT 10:28 PM EDT
Moon 11:51 AM EDT (7/14) 11:31 PM EDT (7/14)
Length of Visible Light 15h 59m
Length of Day
14h 53m
Waxing Crescent, 35% of the Moon is Illuminated
Jul 14
Waxing Crescent
Jul 15
First Quarter
Jul 22
Full
Jul 29
Last Quarter
Aug 6
New

Hourly Weather History & Observations

Time (EDT) Temp. Heat Index Dew Point Humidity Pressure Visibility Wind Dir Wind Speed Gust Speed Precip Events Conditions
12:53 AM 73.9 °F - 71.1 °F 91% 30.31 in 5.0 mi Calm Calm - N/A   Overcast
1:53 AM 73.0 °F - 71.1 °F 93% 30.32 in 7.0 mi Calm Calm - N/A   Overcast
2:53 AM 73.9 °F - 71.1 °F 91% 30.32 in 7.0 mi Calm Calm - N/A   Overcast
3:42 AM 73.4 °F - 69.8 °F 88% 30.33 in 5.0 mi Calm Calm - 0.00 in Rain Light Rain
3:53 AM 73.0 °F - 70.0 °F 90% 30.32 in 4.0 mi Calm Calm - 0.00 in   Overcast
4:02 AM 73.4 °F - 69.8 °F 88% 30.33 in 5.0 mi Calm Calm - N/A   Overcast
4:07 AM 71.6 °F - 69.8 °F 94% 30.33 in 2.5 mi Calm Calm - N/A   Overcast
4:21 AM 73.4 °F - 69.8 °F 88% 30.33 in 5.0 mi Calm Calm - N/A   Overcast
4:34 AM 73.4 °F - 69.8 °F 88% 30.33 in 6.0 mi Calm Calm - N/A   Overcast
4:43 AM 73.4 °F - 69.8 °F 88% 30.33 in 5.0 mi Calm Calm - N/A   Overcast
4:53 AM 73.0 °F - 70.0 °F 90% 30.32 in 6.0 mi Calm Calm - 0.01 in   Overcast
5:18 AM 71.6 °F - 69.8 °F 94% 30.33 in 6.0 mi WSW 3.5 mph - 0.00 in Rain Light Rain
5:53 AM 72.0 °F - 70.0 °F 93% 30.33 in 6.0 mi West 4.6 mph - 0.00 in   Overcast
6:14 AM 73.4 °F - 69.8 °F 88% 30.34 in 7.0 mi WSW 5.8 mph - N/A   Overcast
6:22 AM 73.4 °F - 71.6 °F 94% 30.34 in 7.0 mi WSW 6.9 mph - N/A   Overcast
6:36 AM 73.4 °F - 71.6 °F 94% 30.34 in 6.0 mi WSW 5.8 mph - N/A   Overcast
6:53 AM 73.0 °F - 71.1 °F 93% 30.33 in 6.0 mi Calm Calm - N/A   Overcast
7:53 AM 73.9 °F - 71.1 °F 91% 30.34 in 2.0 mi WSW 4.6 mph - N/A   Overcast
8:20 AM 75.2 °F - 71.6 °F 89% 30.35 in 6.0 mi WSW 8.1 mph - N/A   Overcast
8:29 AM 75.2 °F - 71.6 °F 89% 30.35 in 7.0 mi WSW 6.9 mph - N/A   Mostly Cloudy
8:53 AM 75.9 °F - 71.1 °F 85% 30.34 in 8.0 mi WNW 5.8 mph - N/A   Mostly Cloudy
9:20 AM 78.8 °F - 71.6 °F 78% 30.35 in 9.0 mi WNW 5.8 mph - N/A   Mostly Cloudy
9:35 AM 78.8 °F - 71.6 °F 78% 30.34 in 10.0 mi WNW 6.9 mph - N/A   Mostly Cloudy
9:53 AM 80.1 °F 83.6 °F 71.1 °F 74% 30.33 in 10.0 mi WSW 3.5 mph - N/A   Mostly Cloudy
10:16 AM 80.6 °F 83.9 °F 69.8 °F 70% 30.35 in 10.0 mi West 8.1 mph - N/A   Mostly Cloudy
10:53 AM 82.9 °F 87.5 °F 71.1 °F 67% 30.33 in 10.0 mi NW 6.9 mph - N/A   Mostly Cloudy
11:53 AM 84.0 °F 87.8 °F 69.1 °F 61% 30.32 in 10.0 mi Variable 5.8 mph - N/A   Mostly Cloudy
12:53 PM 84.9 °F 89.4 °F 70.0 °F 61% 30.31 in 10.0 mi WNW 5.8 mph - N/A   Partly Cloudy
1:53 PM 87.1 °F 91.3 °F 69.1 °F 55% 30.30 in 10.0 mi Variable 3.5 mph - N/A   Scattered Clouds
2:53 PM 87.1 °F 91.3 °F 69.1 °F 55% 30.29 in 10.0 mi WNW 5.8 mph - N/A   Mostly Cloudy
3:53 PM 87.1 °F 90.6 °F 68.0 °F 53% 30.26 in 10.0 mi Calm Calm - N/A   Scattered Clouds
4:53 PM 89.1 °F 94.1 °F 70.0 °F 53% 30.25 in 10.0 mi Variable 3.5 mph - N/A   Mostly Cloudy
5:53 PM 87.1 °F 92.0 °F 70.0 °F 57% 30.25 in 10.0 mi West 4.6 mph - N/A   Partly Cloudy
6:53 PM 87.1 °F 92.0 °F 70.0 °F 57% 30.24 in 10.0 mi WSW 3.5 mph - N/A   Mostly Cloudy
7:53 PM 84.0 °F 90.2 °F 73.0 °F 69% 30.24 in 10.0 mi Calm Calm - N/A   Partly Cloudy
8:53 PM 80.1 °F 84.2 °F 73.0 °F 79% 30.25 in 10.0 mi Calm Calm - N/A   Partly Cloudy
9:53 PM 79.0 °F - 72.0 °F 79% 30.25 in 10.0 mi Calm Calm - N/A   Mostly Cloudy
10:53 PM 79.0 °F - 70.0 °F 74% 30.25 in 10.0 mi WSW 5.8 mph - N/A   Clear
11:53 PM 78.1 °F - 69.1 °F 74% 30.25 in 10.0 mi Calm Calm - N/A   Partly Cloudy